Saginaw, MI

1:32 AM EDT on May 29, 2017 (GMT -0400)
MBS International

Weather History for KMBS - July, 2012

Change the Weather History Date:

Tuesday, July 10, 2012

  Actual Average Record
Temperature  
Mean Temperature 70 °F 71 °F  
Max Temperature 82 °F 82 °F 90 °F (2007)
Min Temperature 59 °F 60 °F 50 °F (1996)
Degree Days  
Heating Degree Days 0    
Month to date heating degree days  
Since 1 June heating degree days  
Since 1 July heating degree days  
Cooling Degree Days 5    
Month to date cooling degree days  
Year to date cooling degree days  
Since 1 June cooling degree days  
Growing Degree Days 20 (Base 50)    
Moisture  
Dew Point 54 °F    
Average Humidity 58    
Maximum Humidity 83    
Minimum Humidity 36    
Precipitation  
Precipitation 0.00 in 0.07 in 0.99 in (2003)
Month to date precipitation 0.83  
Year to date precipitation 15.46  
Snow  
Snow 0.00 in - - ()
Month to date snowfall  
Since 1 June snowfall  
Since 1 July snowfall  
Snow Depth -    
Sea Level Pressure  
Sea Level Pressure 30.12 in    
Wind  
Wind Speed 5 mph (NE)    
Max Wind Speed 10 mph    
Max Gust Speed -    
Visibility 10 miles    
Events      
T = Trace of Precipitation, MM = Missing Value Source: NWS Daily Summary

Daily Weather History Graph

Daily Weather History Graph

Search for Another Location

Airport or City:

Trip Planner

Search our weather history database for the weather conditions in past years. The results will help you decide how hot, cold, wet, or windy it might be!

Date:

Astronomy

Jul. 10, 2012 Rise Set
Actual Time 6:05 AM EDT 9:17 PM EDT
Civil Twilight 5:30 AM EDT 9:52 PM EDT
Nautical Twilight 4:45 AM EDT 10:37 PM EDT
Astronomical Twilight 3:50 AM EDT 11:32 PM EDT
Moon 12:18 AM EDT (7/10) 1:46 PM EDT (7/10)
Length of Visible Light 16h 22m
Length of Day
15h 12m
Waning Gibbous, 54% of the Moon is Illuminated
Jul 10
Waning Gibbous
Jul 10
Last Quarter
Jul 19
New
Jul 26
First Quarter
Aug 1
Full

Hourly Weather History & Observations

Time (EDT) Temp. Heat Index Dew Point Humidity Pressure Visibility Wind Dir Wind Speed Gust Speed Precip Events Conditions
12:53 AM 64.9 °F - 53.1 °F 65% 30.07 in 10.0 mi East 5.8 mph - N/A   Clear
1:53 AM 62.1 °F - 53.1 °F 72% 30.08 in 10.0 mi NE 4.6 mph - N/A   Clear
2:53 AM 63.0 °F - 52.0 °F 67% 30.09 in 10.0 mi Calm Calm - N/A   Clear
3:53 AM 60.1 °F - 53.1 °F 78% 30.09 in 10.0 mi Calm Calm - N/A   Clear
4:53 AM 59.0 °F - 54.0 °F 83% 30.10 in 10.0 mi North 4.6 mph - N/A   Clear
5:53 AM 60.8 °F - 53.6 °F 77% 30.12 in 10.0 mi Calm Calm - N/A   Clear
6:53 AM 60.1 °F - 53.1 °F 78% 30.13 in 10.0 mi North 5.8 mph - N/A   Clear
7:21 AM 62.6 °F - 53.6 °F 72% 30.14 in 10.0 mi North 5.8 mph - N/A   Partly Cloudy
7:53 AM 64.9 °F - 55.9 °F 73% 30.14 in 10.0 mi North 5.8 mph - N/A   Partly Cloudy
8:53 AM 69.1 °F - 57.9 °F 68% 30.15 in 10.0 mi NNE 6.9 mph - N/A   Clear
9:53 AM 73.0 °F - 59.0 °F 61% 30.16 in 10.0 mi NNE 6.9 mph - N/A   Clear
10:53 AM 75.0 °F - 54.0 °F 48% 30.15 in 10.0 mi NE 8.1 mph - N/A   Clear
11:53 AM 77.0 °F - 53.1 °F 43% 30.15 in 10.0 mi NNE 10.4 mph - N/A   Clear
12:53 PM 78.1 °F - 52.0 °F 40% 30.15 in 10.0 mi NE 10.4 mph - N/A   Clear
1:53 PM 79.0 °F - 53.1 °F 40% 30.14 in 10.0 mi Calm Calm - N/A   Scattered Clouds
2:53 PM 81.0 °F 80.5 °F 54.0 °F 39% 30.13 in 10.0 mi East 5.8 mph - N/A   Clear
3:53 PM 78.1 °F - 52.0 °F 40% 30.12 in 10.0 mi Calm Calm - N/A   Clear
4:53 PM 81.0 °F - 52.0 °F 36% 30.12 in 10.0 mi East 5.8 mph - N/A   Clear
5:53 PM 81.0 °F - 52.0 °F 36% 30.11 in 10.0 mi Calm Calm - N/A   Clear
6:53 PM 80.1 °F 79.9 °F 53.1 °F 39% 30.11 in 10.0 mi East 6.9 mph - N/A   Clear
7:53 PM 77.0 °F - 55.9 °F 48% 30.11 in 10.0 mi ENE 9.2 mph - N/A   Clear
9:53 PM 69.1 °F - 55.0 °F 61% 30.12 in 10.0 mi ENE 5.8 mph - N/A   Clear
10:53 PM 66.9 °F - 54.0 °F 63% 30.14 in 10.0 mi ENE 4.6 mph - N/A   Clear
11:53 PM 66.0 °F - 51.1 °F 59% 30.15 in 10.0 mi ESE 5.8 mph - N/A   Partly Cloudy